When you browse on this site, cookies collect data to enhance your experience and personalize the content and advertising you see.
Visit our Privacy Policy to learn more. By continuing to use the site, you agree to this use of cookies and data.
  • In Spain
  • List of Countries
  • For 7 days
  • Water Temperature
  • Weather Map
  • Weather Widgets
  • user-avatar
    Login

    Hourly Weather Snezhed

    Today, 20 August, Tuesday

    Time Temperature Precipitation Wind Pressure Humidity
    00:00 +16°C° 0 mm 0 mps 750 mmHg 86%
    01:00 +15°C° 0 mm 0 mps 751 mmHg 87%
    02:00 +15°C° 0 mm 0 mps 751 mmHg 87%
    03:00 +15°C° 0 mm 0 mps 751 mmHg 87%
    04:00 +15°C° 0 mm 0 mps 751 mmHg 87%
    05:00 +15°C° 0 mm 0 mps 751 mmHg 87%
    06:00 +17°C° 0 mm 0 mps 751 mmHg 82%
    07:00 +19°C° 0 mm 0 mps 752 mmHg 76%
    08:00 +22°C° 0 mm 1 mps 752 mmHg 71%
    09:00 +24°C° 0 mm 1 mps 752 mmHg 66%
    10:00 +25°C° 0 mm 1 mps 752 mmHg 62%
    11:00 +26°C° 0 mm 1 mps 752 mmHg 57%
    12:00 +26°C° 0 mm 1 mps 752 mmHg 56%
    13:00 +27°C° 0 mm 1 mps 752 mmHg 54%
    14:00 +27°C° 0 mm 1 mps 752 mmHg 53%
    15:00 +27°C° 0 mm 1 mps 752 mmHg 57%
    16:00 +27°C° 0 mm 1 mps 752 mmHg 61%
    17:00 +27°C° 0 mm 1 mps 752 mmHg 65%
    18:00 +25°C° 0 mm 1 mps 752 mmHg 68%
    19:00 +23°C° 0 mm 1 mps 752 mmHg 71%
    20:00 +20°C° 0 mm 0 mps 752 mmHg 74%
    21:00 +21°C° 0 mm 1 mps 752 mmHg 75%
    22:00 +21°C° 0 mm 1 mps 752 mmHg 76%
    23:00 +20°C° 0 mm 1 mps 752 mmHg 78%

    Tomorrow, 21 August, Wednesday

    Time Temperature Precipitation Wind Pressure Humidity
    00:00 +20°C° 0 mm 1 mps 752 mmHg 79%
    01:00 +20°C° 0 mm 1 mps 752 mmHg 80%
    02:00 +19°C° 0 mm 1 mps 753 mmHg 82%
    03:00 +19°C° 0 mm 1 mps 752 mmHg 82%
    04:00 +19°C° 0 mm 1 mps 752 mmHg 83%
    05:00 +19°C° 0 mm 1 mps 752 mmHg 83%
    06:00 +21°C° 0 mm 1 mps 752 mmHg 79%
    07:00 +22°C° 0 mm 1 mps 753 mmHg 74%
    08:00 +24°C° 0 mm 1 mps 753 mmHg 70%
    09:00 +25°C° 0 mm 1 mps 753 mmHg 66%
    10:00 +25°C° 0 mm 0 mps 753 mmHg 63%
    11:00 +26°C° 0 mm 0 mps 753 mmHg 59%
    12:00 +26°C° 0 mm 0 mps 752 mmHg 58%
    13:00 +29°C° 0 mm 1 mps 752 mmHg 56%
    14:00 +29°C° 0 mm 1 mps 752 mmHg 54%
    15:00 +29°C° 0 mm 1 mps 752 mmHg 58%
    16:00 +29°C° 0 mm 1 mps 751 mmHg 61%
    17:00 +28°C° 0 mm 1 mps 751 mmHg 65%
    18:00 +27°C° 0 mm 1 mps 751 mmHg 69%
    19:00 +25°C° 0 mm 1 mps 751 mmHg 72%
    20:00 +23°C° 0 mm 1 mps 751 mmHg 76%
    21:00 +23°C° 0 mm 1 mps 751 mmHg 77%
    22:00 +22°C° 0 mm 1 mps 751 mmHg 79%
    23:00 +21°C° 0 mm 2 mps 751 mmHg 80%

    Day after tomorrow, 22 August, Thursday

    Time Temperature Precipitation Wind Pressure Humidity
    00:00 +20°C° 0 mm 2 mps 751 mmHg 82%
    01:00 +21°C° 0 mm 1 mps 751 mmHg 83%
    02:00 +20°C° 0 mm 1 mps 751 mmHg 85%
    03:00 +20°C° 0 mm 1 mps 750 mmHg 86%
    04:00 +20°C° 0 mm 1 mps 750 mmHg 86%
    05:00 +20°C° 0 mm 1 mps 750 mmHg 87%
    06:00 +21°C° 0 mm 1 mps 750 mmHg 82%
    07:00 +23°C° 0 mm 1 mps 750 mmHg 77%
    08:00 +25°C° 0 mm 1 mps 750 mmHg 71%
    09:00 +26°C° 0 mm 1 mps 750 mmHg 68%
    10:00 +27°C° 0 mm 1 mps 750 mmHg 65%
    11:00 +28°C° 0 mm 1 mps 750 mmHg 61%
    12:00 +28°C° 0 mm 1 mps 750 mmHg 60%
    13:00 +29°C° 0 mm 1 mps 750 mmHg 59%
    14:00 +29°C° 0 mm 1 mps 750 mmHg 58%
    15:00 +28°C° 0.6 mm 2 mps 750 mmHg 64%
    16:00 +27°C° 0.6 mm 3 mps 750 mmHg 71%
    17:00 +26°C° 0.6 mm 3 mps 750 mmHg 77%
    18:00 +23°C° 0.4 mm 4 mps 750 mmHg 83%
    19:00 +21°C° 0.4 mm 4 mps 750 mmHg 88%
    20:00 +20°C° 0.4 mm 5 mps 751 mmHg 93%
    21:00 +19°C° 0.1 mm 4 mps 751 mmHg 94%
    22:00 +18°C° 0.1 mm 4 mps 751 mmHg 94%
    23:00 +18°C° 0.1 mm 4 mps 751 mmHg 94%

    23 August, Friday

    Time Temperature Precipitation Wind Pressure Humidity
    00:00 +17°C° 0 mm 4 mps 751 mmHg 93%
    01:00 +17°C° 0 mm 4 mps 752 mmHg 93%
    02:00 +17°C° 0 mm 4 mps 752 mmHg 93%
    03:00 +15°C° 0 mm 4 mps 752 mmHg 93%
    04:00 +15°C° 0 mm 4 mps 752 mmHg 93%
    05:00 +14°C° 0 mm 4 mps 752 mmHg 93%
    06:00 +15°C° 0 mm 4 mps 752 mmHg 89%
    07:00 +17°C° 0 mm 4 mps 752 mmHg 86%
    08:00 +17°C° 0 mm 5 mps 752 mmHg 82%
    09:00 +19°C° 0 mm 5 mps 753 mmHg 78%
    10:00 +20°C° 0 mm 4 mps 753 mmHg 73%
    11:00 +21°C° 0 mm 4 mps 753 mmHg 69%
    12:00 +22°C° 0 mm 4 mps 753 mmHg 67%
    13:00 +22°C° 0 mm 4 mps 753 mmHg 65%
    14:00 +23°C° 0 mm 4 mps 753 mmHg 63%
    15:00 +22°C° 0 mm 4 mps 752 mmHg 66%
    16:00 +22°C° 0 mm 3 mps 752 mmHg 69%
    17:00 +22°C° 0 mm 3 mps 752 mmHg 71%
    18:00 +20°C° 0 mm 3 mps 752 mmHg 73%
    19:00 +18°C° 0 mm 2 mps 753 mmHg 76%
    20:00 +17°C° 0 mm 2 mps 753 mmHg 78%
    21:00 +16°C° 0 mm 2 mps 753 mmHg 79%
    22:00 +16°C° 0 mm 2 mps 753 mmHg 81%
    23:00 +15°C° 0 mm 2 mps 753 mmHg 83%

    24 August, Saturday

    Time Temperature Precipitation Wind Pressure Humidity
    00:00 +15°C° 0 mm 2 mps 753 mmHg 84%
    01:00 +14°C° 0 mm 2 mps 754 mmHg 84%
    02:00 +14°C° 0 mm 2 mps 754 mmHg 85%
    03:00 +14°C° 0 mm 2 mps 754 mmHg 86%
    04:00 +13°C° 0 mm 2 mps 754 mmHg 86%
    05:00 +13°C° 0 mm 2 mps 754 mmHg 86%
    06:00 +14°C° 0 mm 2 mps 754 mmHg 82%
    07:00 +16°C° 0 mm 3 mps 754 mmHg 78%
    08:00 +18°C° 0 mm 3 mps 754 mmHg 74%
    09:00 +19°C° 0 mm 3 mps 755 mmHg 68%
    10:00 +20°C° 0 mm 3 mps 755 mmHg 61%
    11:00 +21°C° 0 mm 3 mps 755 mmHg 54%
    12:00 +23°C° 0 mm 2 mps 754 mmHg 52%
    13:00 +23°C° 0 mm 2 mps 754 mmHg 50%
    14:00 +24°C° 0 mm 2 mps 754 mmHg 48%
    15:00 +23°C° 0 mm 2 mps 754 mmHg 52%
    16:00 +23°C° 0 mm 2 mps 754 mmHg 56%
    17:00 +23°C° 0 mm 1 mps 754 mmHg 61%
    18:00 +21°C° 0 mm 1 mps 754 mmHg 63%
    19:00 +19°C° 0 mm 1 mps 754 mmHg 65%
    20:00 +15°C° 0 mm 0 mps 754 mmHg 68%
    21:00 +16°C° 0 mm 1 mps 754 mmHg 69%
    22:00 +16°C° 0 mm 1 mps 754 mmHg 70%
    23:00 +15°C° 0 mm 1 mps 754 mmHg 71%

    25 August, Sunday

    Time Temperature Precipitation Wind Pressure Humidity
    00:00 +15°C° 0 mm 1 mps 754 mmHg 72%
    01:00 +15°C° 0 mm 2 mps 754 mmHg 73%
    02:00 +14°C° 0 mm 2 mps 754 mmHg 74%
    03:00 +14°C° 0 mm 2 mps 754 mmHg 77%
    04:00 +14°C° 0 mm 2 mps 754 mmHg 79%
    05:00 +13°C° 0 mm 2 mps 754 mmHg 81%
    06:00 +15°C° 0 mm 2 mps 753 mmHg 78%
    07:00 +17°C° 0 mm 2 mps 753 mmHg 76%
    08:00 +18°C° 0 mm 2 mps 753 mmHg 73%
    09:00 +20°C° 0 mm 3 mps 753 mmHg 69%
    10:00 +21°C° 0 mm 3 mps 753 mmHg 64%
    11:00 +22°C° 0 mm 3 mps 753 mmHg 60%
    12:00 +24°C° 0 mm 3 mps 752 mmHg 58%
    13:00 +24°C° 0 mm 3 mps 752 mmHg 56%
    14:00 +24°C° 0 mm 3 mps 752 mmHg 55%
    15:00 +24°C° 0 mm 3 mps 752 mmHg 59%
    16:00 +24°C° 0 mm 2 mps 751 mmHg 62%
    17:00 +23°C° 0 mm 2 mps 751 mmHg 66%
    18:00 +21°C° 0 mm 2 mps 751 mmHg 71%
    19:00 +19°C° 0 mm 2 mps 751 mmHg 75%
    20:00 +17°C° 0 mm 2 mps 751 mmHg 79%
    21:00 +17°C° 0 mm 2 mps 751 mmHg 82%
    22:00 +16°C° 0 mm 2 mps 751 mmHg 84%
    23:00 +16°C° 0 mm 2 mps 752 mmHg 87%
    Show more